Regional Weather Roundup
Issued by NWS

Home | Current Version | Previous Version | Text Only | Print | Product List | Glossary Off
Versions: 1 2 3 4 5 6 7 8 9 10 11 12 13 14 15 16 17 18 19 20 21 22 23 24 25 26 27 28 29 30 31 32 33 34 35 36 37 38 39 40 41 42 43 44 45 46 47 48 49 50

000
ASUS43 KIND 041659
RWRIN

WEATHER ROUNDUP FOR INDIANA
NATIONAL WEATHER SERVICE INDIANAPOLIS IN
100 PM EDT MON MAY 04 2015

NOTE: "FAIR" INDICATES FEW OR NO CLOUDS BELOW 12,000 FEET WITH NO
SIGNIFICANT WEATHER AND/OR OBSTRUCTIONS TO VISIBILITY.

* - STATION DOES NOT REPORT WEATHER SUCH AS PRECIPITATION OR FOG.

+ - STATION NOT QUALITY CONTROLLED BY THE NATIONAL WEATHER SERVICE.
    USE DATA WITH CAUTION...ESPECIALLY DEWPOINT AND RELATIVE
    HUMIDITY OBSERVATIONS.

INZ001>003-010>013-019-020-041800-
NORTHWEST INDIANA

CITY           SKY/WX    TMP DP  RH WIND       PRES   REMARKS
GARY /AIRPORT/ PTSUNNY   70 N/A N/A SW12      30.12R
VALPARAISO     PTSUNNY   70  61  73 SW12      30.13R

$$

LMZ046-743>745-041800-
SOUTHERN LAKE MICHIGAN

STATION/POSITION TIME  TEMP    WIND        PRES    WAVE
                       AIR SEA DIR/SP/G            HT
                 (UTC) (F)     (DEG/KT/KT) (MB)    (FT)
BURNS HARBOR     1600   61     280/  5/  6 1020.0R
MICHIGAN CITY    1600   62     230/  9/ 10   N/A
5NW MICH CITY    1600   57 50  250/  6/  8   N/A     1

$$

INZ004-005-014>016-021>024-041800-
NORTH CENTRAL INDIANA

CITY           SKY/WX    TMP DP  RH WIND       PRES   REMARKS
ELKHART        SUNNY     72  57  60 W6        30.10S
GOSHEN         PTSUNNY   66  60  81 SW9       30.11R
SOUTH BEND     PTSUNNY   71  60  68 W9        30.11R

$$

INZ006>009-017-018-025>027-041800-
NORTHEAST INDIANA

CITY           SKY/WX    TMP DP  RH WIND       PRES   REMARKS
ANGOLA *+      PTSUNNY   66  61  82 SW10      30.10S
FORT WAYNE     CLOUDY    62  59  90 S13       30.13F

$$

INZ028-029-035-036-043>045-051>053-041800-
WEST CENTRAL INDIANA

CITY           SKY/WX    TMP DP  RH WIND       PRES   REMARKS
CRAWFORDSVL +  CLOUDY    64  56  76 S12       30.14S
GREENCASTLE +  CLOUDY    63  55  77 S7        30.16F
LAFAYETTE      CLOUDY    66  59  78 S10G18    30.11F
TERRE HAUTE    CLOUDY    71  62  73 S6        30.15S

$$

INZ030>032-037>040-046>048-054>057-064-065-041800-
CENTRAL INDIANA

CITY           SKY/WX    TMP DP  RH WIND       PRES   REMARKS
ANDERSON       PTSUNNY   63  55  77 S6        30.18
COLUMBUS       PTSUNNY   66  55  68 W6        30.19F
GREENWOOD *+   CLOUDY    64  57  77 S5        30.18F
INDIANAPOLIS   LGT RAIN  62  57  83 S7        30.15F
-EAGLE CREEK   LGT RAIN  62  58  86 S5        30.15F
KOKOMO *+      CLOUDY    63  59  88 S20       30.13F
MT COMFORT *+  CLOUDY    63  63 100 S8        30.17F
SHELBYVILLE    LGT RAIN  69  54  58 SW3       30.18F

$$

INZ033-034-041-042-049-050-058-059-041800-
EAST CENTRAL INDIANA

CITY           SKY/WX    TMP DP  RH WIND       PRES   REMARKS
MUNCIE         LGT RAIN  65  58  78 S8        30.17F

$$

INZ060-061-067>069-081>083-085>088-041800-
SOUTHWEST INDIANA

CITY           SKY/WX    TMP DP  RH WIND       PRES   REMARKS
EVANSVILLE     MOSUNNY   79  58  48 S9        30.19S
HUNTINGBURG *+ MOSUNNY   75  57  53 S6        30.20S

$$

INZ062-063-066-070>080-084-089>092-041800-
SOUTH CENTRAL AND SOUTHEAST INDIANA

CITY           SKY/WX    TMP DP  RH WIND       PRES   REMARKS
BLOOMINGTON    CLOUDY    73  55  53 SE3       30.18F
MADISON *+     PTSUNNY   77  52  41 S9        30.23S
SEYMOUR +      PTSUNNY   77  55  47 NW6       30.20S

$$



USA.gov is the U.S. government's official web portal to all federal, state and local government web resources and services.